DECAYED

OBJECT G, 57010 (Decayed)

Orbit data source: Space-Track

You're viewing an Uncataloged Satellite

Recently launched and/or uncataloged satellites may have evolving metadata. Metadata may include but not limited to: Owner, Maufacturer, Bus, Motor, and Mission.

OBJECT G, 57010 was a Chinese satellite in LEO that was launched on Thu, 15 Jun 2023 UTC via a CHANG ZHENG 2D launch vehicle from the Taiyaun Space Center, China (TSC). Unknown objects in Earth's orbit typically refer to objects detected orbiting the Earth but have not yet been identified or cataloged. These objects could be anything from previously untracked satellites, spent rocket stages, debris from satellite collisions, or even natural meteoroids temporarily captured by Earth's gravity. This object's orbit decayed before it could be identified.

Not visible in the next 10 days
Identifier
57010, 2023-085G
Orbit
Decayed
Country
Flag of CNCN / PRC
Related business
None
Manufacturer
Unknown
Mission
Decayed Commercial Imaging
Bus & Motor
Unknown
Mass
Unknown
Launch date (UTC)
2023-06-15 (3 years ago)
Launch vehicle
CHANG ZHENG 2D
Launch site
Taiyaun Space Center, China (TSC)
Object type
Unknown
Shape & HBR
Box, 0.8 m
Radar Cross Section
2.000 m², Medium (>0.1 m² and < 1m²)

Expand to show TLE details & history
Last TLE update: 6 months ago

TLE from 6 months ago
0 OBJECT G
1 57010U 23085G   25363.47074387  .19195201  27201-5  31251-3 0  9990
2 57010  97.4620 126.3425 0010597 137.7388 222.4734 16.47638553141924
Epoch: 2025-12-29T11:17Z
TLE epoch observation values (Epoch: 2025-12-29T11:17:52.270Z)
Latitude
Longitude
-141.2932°
Altitude
153.925 km
Speed
7.811 km/s
True Right ascension
08h 25m 22s
True Declination
0° 00' 00"
Sunlit
Object was in full shadow at epoch
Visualization orbit readout
Latitude
Unknown
Longitude
Unknown
Altitude
Unknown
Speed
Unknown
Apparent Right ascension
Unknown
Apparent Declination
Unknown
Sunlit
N/A
Visualization observer readout
Local Sidereal Time
23:07:37
Azimuth
Unknown
Elevation
Unknown
Doppler factor
Unknown
Orbital elements
Apogee altitude
149.272 km
Perigee altitude
135.452 km
Semi-major axis
6,520.499 km
Eccentricity
0.00106
Inclination
97.462°
RAAN
126.3425°
Arg. of periapsis
137.7388°
True anomaly
222.39148°
Mean anomaly
222.4734°
Eccentric anomaly
222.43243°
Mean motion
4.12213 °/min
Orbital period
87.33 mins
BSTAR
0.00031251
Loading maneuver chart data...
Computing Atmospheric mass density...
Loading historical data...
Loading historical data...
Loading historical data...
Loading historical data...
Loading historical data...
Loading historical data...
Loading historical data...

Documentation

Showing up to 5 results
|